Regional Weather Roundup
Issued by NWS

Home | Current Version | Previous Version | Text Only | Print | Product List | Glossary On
Versions: 1 2 3 4 5 6 7 8 9 10 11 12 13 14 15 16 17 18 19 20 21 22 23 24 25 26 27 28 29 30 31 32 33 34 35 36 37 38 39 40 41 42 43 44 45 46 47 48 49 50
000
ASUS43 KLSX 310259
RWRMO

WEATHER SUMMARY FOR MISSOURI
NATIONAL WEATHER SERVICE SPRINGFIELD MO
900 PM CST FRI JAN 30 2015

NOTE: "FAIR" INDICATES FEW OR NO CLOUDS BELOW 12,000 FEET WITH NO
       SIGNIFICANT WEATHER AND/OR OBSTRUCTIONS TO VISIBILITY.
       CURRENT SKY AND/OR WEATHER CONDITIONS ARE NOT AVAILABLE FOR
       CHILLICOTHE AND FARMINGTON.

MOZ001>031-035>038-043-044-053-054-310400-
...NORTHERN AND WESTERN MISSOURI...

CITY           SKY/WX    TMP DP  RH WIND       PRES   REMARKS
KANSAS CTY INT CLOUDY    32  22  66 S6        30.36S WCI  26
KANSAS C DTWN  CLOUDY    37  21  52 S3        30.37S
LEE`S SUMMIT   CLOUDY    35  19  52 S5        30.37F
ST JOSEPH      CLOUDY    27  21  78 S5        30.37F WCI  22
CHILLICOTHE      N/A     29  21  72 CALM      30.39F
KIRKSVILLE     PTCLDY    27  18  69 S3        30.38S

$$
MOZ066>068-077>081-088>096-101>105-310400-
...SOUTHWEST MISSOURI...

CITY           SKY/WX    TMP DP  RH WIND       PRES   REMARKS
SPRINGFIELD    CLOUDY    35  24  64 SE3       30.36F
JOPLIN         CLOUDY    37  26  64 CALM      30.37F

$$
MOZ032>034-039>042-045>050-055>058-069>072-310400-
...CENTRAL MISSOURI...

CITY           SKY/WX    TMP DP  RH WIND       PRES   REMARKS
COLUMBIA       CLOUDY    32  18  56 E5        30.39F WCI  27
JEFFERSON CITY CLOUDY    28  19  69 CALM      30.41F
ROLLA          CLOUDY    30  20  66 E3        30.38S
SEDALIA        CLOUDY    32  21  64 SE5       30.39F WCI  27
OSAGE BEACH    CLOUDY    32  18  55 E3        30.39S

$$
MOZ051-052-059>065-310400-
...EAST CENTRAL MISSOURI...

CITY           SKY/WX    TMP DP  RH WIND       PRES   REMARKS
ST LOUIS INTL  MOCLDY    31  19  61 SE5       30.44F WCI  26
SPIRIT OF STL  FAIR      25  19  78 CALM      30.43F
ST CHARLES     PTCLDY    26  23  88 CALM      30.43F

$$
MOZ072>076-082>087-097>100-106>115-310400-
...SOUTH CENTRAL AND SOUTHEAST MISSOURI...

CITY           SKY/WX    TMP DP  RH WIND       PRES   REMARKS
CAPE GIRARDEAU MOCLDY    30  24  78 E5        30.45F WCI  25
FARMINGTON     MOCLDY    28  18  64 CALM      30.45S
POPLAR BLUFF   MOCLDY    31  26  82 CALM      30.43F
WEST PLAINS    MOCLDY    32  16  51 CALM      30.40F

$$



USA.gov is the U.S. government's official web portal to all federal, state and local government web resources and services.